TimeCST,TemperatureF,Dew PointF,Humidity,Sea Level PressureIn,VisibilityMPH,Wind Direction,Wind SpeedMPH,Gust SpeedMPH,PrecipitationIn,Events,Conditions,WindDirDegrees,DateUTC
12:15 AM,48.2,37.4,66,30.02,10.0,SE,4.6,-,N/A,,Partly Cloudy,130,2014-02-23 06:15:00
12:35 AM,51.8,37.4,58,30.02,10.0,SE,4.6,-,N/A,,Scattered Clouds,140,2014-02-23 06:35:00
12:55 AM,51.8,37.4,58,30.01,10.0,Calm,Calm,-,N/A,,Partly Cloudy,0,2014-02-23 06:55:00
1:15 AM,51.8,39.2,62,30.02,10.0,Calm,Calm,-,N/A,,Clear,0,2014-02-23 07:15:00
1:35 AM,50.0,39.2,66,30.02,10.0,Calm,Calm,-,N/A,,Clear,0,2014-02-23 07:35:00
1:55 AM,50.0,39.2,66,30.01,10.0,Calm,Calm,-,N/A,,Scattered Clouds,0,2014-02-23 07:55:00
2:15 AM,50.0,42.8,76,30.01,10.0,Calm,Calm,-,N/A,,Mostly Cloudy,0,2014-02-23 08:15:00
2:35 AM,48.2,42.8,82,30.01,10.0,Calm,Calm,-,N/A,,Mostly Cloudy,0,2014-02-23 08:35:00
2:55 AM,51.8,42.8,71,30.00,10.0,Calm,Calm,-,N/A,,Overcast,0,2014-02-23 08:55:00
3:15 AM,51.8,44.6,76,30.00,10.0,Calm,Calm,-,N/A,,Overcast,0,2014-02-23 09:15:00
3:35 AM,51.8,46.4,82,30.00,10.0,Calm,Calm,-,N/A,,Overcast,0,2014-02-23 09:35:00
3:55 AM,53.6,46.4,77,30.01,10.0,Calm,Calm,-,N/A,,Overcast,0,2014-02-23 09:55:00
4:15 AM,53.6,44.6,72,30.01,10.0,Calm,Calm,-,N/A,,Light Drizzle,0,2014-02-23 10:15:00
4:35 AM,51.8,48.2,88,30.01,3.0,Calm,Calm,-,N/A,,Scattered Clouds,0,2014-02-23 10:35:00
4:55 AM,51.8,48.2,88,30.01,2.5,Calm,Calm,-,N/A,,Partly Cloudy,0,2014-02-23 10:55:00
5:15 AM,51.8,48.2,88,30.02,3.0,Calm,Calm,-,N/A,,Scattered Clouds,0,2014-02-23 11:15:00
5:35 AM,50.0,50.0,100,30.01,1.0,Calm,Calm,-,N/A,Rain,Light Rain,0,2014-02-23 11:35:00
5:55 AM,51.8,50.0,94,30.01,1.0,Calm,Calm,-,N/A,Rain,Light Rain,0,2014-02-23 11:55:00
6:15 AM,50.0,50.0,100,30.01,2.0,Calm,Calm,-,N/A,,Mostly Cloudy,0,2014-02-23 12:15:00
6:35 AM,50.0,50.0,100,30.02,1.2,Calm,Calm,-,N/A,,Light Drizzle,0,2014-02-23 12:35:00
6:55 AM,51.8,51.8,100,30.02,1.8,Calm,Calm,-,N/A,,Scattered Clouds,0,2014-02-23 12:55:00
7:15 AM,51.8,51.8,100,30.02,3.0,Calm,Calm,-,N/A,,Partly Cloudy,0,2014-02-23 13:15:00
7:35 AM,51.8,51.8,100,30.01,2.5,Calm,Calm,-,N/A,,Mostly Cloudy,0,2014-02-23 13:35:00
7:55 AM,53.6,53.6,100,30.01,3.0,Calm,Calm,-,N/A,,Overcast,0,2014-02-23 13:55:00
8:15 AM,53.6,53.6,100,30.02,5.0,Calm,Calm,-,N/A,,Overcast,0,2014-02-23 14:15:00
8:35 AM,55.4,55.4,100,30.03,7.0,Calm,Calm,-,N/A,,Overcast,0,2014-02-23 14:35:00
8:55 AM,57.2,55.4,94,30.03,6.0,Calm,Calm,-,N/A,,Overcast,0,2014-02-23 14:55:00
9:15 AM,57.2,57.2,100,30.04,5.0,Calm,Calm,-,N/A,,Overcast,0,2014-02-23 15:15:00
9:35 AM,59.0,57.2,94,30.03,8.0,Calm,Calm,-,N/A,,Overcast,0,2014-02-23 15:35:00
9:55 AM,60.8,59.0,94,30.04,5.0,Calm,Calm,-,N/A,,Overcast,0,2014-02-23 15:55:00
10:15 AM,60.8,60.8,100,30.04,6.0,Calm,Calm,-,N/A,,Overcast,0,2014-02-23 16:15:00
10:35 AM,62.6,60.8,94,30.05,7.0,Calm,Calm,-,N/A,,Overcast,0,2014-02-23 16:35:00
10:55 AM,62.6,60.8,94,30.04,6.0,Calm,Calm,-,N/A,,Overcast,0,2014-02-23 16:55:00
11:15 AM,62.6,60.8,94,30.04,3.0,SSE,4.6,-,N/A,,Overcast,160,2014-02-23 17:15:00
11:35 AM,60.8,60.8,100,30.04,2.5,Calm,Calm,-,N/A,,Overcast,0,2014-02-23 17:35:00
11:55 AM,62.6,60.8,94,30.03,3.0,Calm,Calm,-,N/A,,Overcast,0,2014-02-23 17:55:00
12:15 PM,62.6,60.8,94,30.03,4.0,Calm,Calm,-,N/A,,Mostly Cloudy,0,2014-02-23 18:15:00
12:35 PM,62.6,60.8,94,30.02,7.0,Calm,Calm,-,N/A,,Overcast,0,2014-02-23 18:35:00
12:55 PM,64.4,60.8,88,30.02,7.0,North,4.6,-,N/A,,Overcast,10,2014-02-23 18:55:00
1:15 PM,64.4,60.8,88,30.01,9.0,Calm,Calm,-,N/A,,Overcast,0,2014-02-23 19:15:00
1:35 PM,64.4,60.8,88,30.01,9.0,Calm,Calm,-,N/A,,Overcast,0,2014-02-23 19:35:00
1:55 PM,64.4,60.8,88,30.00,9.0,Calm,Calm,-,N/A,,Overcast,0,2014-02-23 19:55:00
2:15 PM,66.2,60.8,83,29.99,10.0,Calm,Calm,-,N/A,,Overcast,0,2014-02-23 20:15:00
2:35 PM,66.2,60.8,83,29.99,10.0,Calm,Calm,-,N/A,,Overcast,0,2014-02-23 20:35:00
2:55 PM,66.2,60.8,83,29.98,7.0,Calm,Calm,-,N/A,,Overcast,0,2014-02-23 20:55:00
3:15 PM,66.2,60.8,83,29.98,10.0,Calm,Calm,-,N/A,,Overcast,0,2014-02-23 21:15:00
3:35 PM,68.0,60.8,78,29.97,8.0,Calm,Calm,-,N/A,,Mostly Cloudy,0,2014-02-23 21:35:00
3:55 PM,68.0,60.8,78,29.97,9.0,Calm,Calm,-,N/A,,Mostly Cloudy,0,2014-02-23 21:55:00
4:15 PM,68.0,60.8,78,29.97,8.0,Calm,Calm,-,N/A,,Mostly Cloudy,0,2014-02-23 22:15:00
4:35 PM,68.0,60.8,78,29.97,9.0,Calm,Calm,-,N/A,,Overcast,0,2014-02-23 22:35:00
4:55 PM,68.0,60.8,78,29.97,10.0,Calm,Calm,-,N/A,,Overcast,0,2014-02-23 22:55:00
5:15 PM,66.2,62.6,88,29.98,8.0,Calm,Calm,-,N/A,,Overcast,0,2014-02-23 23:15:00
5:35 PM,66.2,62.6,88,29.98,9.0,Calm,Calm,-,N/A,,Overcast,0,2014-02-23 23:35:00
5:55 PM,66.2,62.6,88,29.98,9.0,Calm,Calm,-,N/A,,Overcast,0,2014-02-23 23:55:00
6:15 PM,64.4,62.6,94,29.99,9.0,Calm,Calm,-,N/A,,Overcast,0,2014-02-24 00:15:00
6:35 PM,64.4,62.6,94,30.00,10.0,Calm,Calm,-,N/A,,Overcast,0,2014-02-24 00:35:00
6:55 PM,64.4,62.6,94,30.00,10.0,Calm,Calm,-,N/A,,Overcast,0,2014-02-24 00:55:00
7:15 PM,64.4,62.6,94,30.01,10.0,Calm,Calm,-,N/A,,Overcast,0,2014-02-24 01:15:00
7:35 PM,64.4,62.6,94,30.01,8.0,Calm,Calm,-,N/A,,Overcast,0,2014-02-24 01:35:00
7:55 PM,64.4,62.6,94,30.01,10.0,Calm,Calm,-,N/A,,Overcast,0,2014-02-24 01:55:00
8:15 PM,62.6,62.6,100,30.02,10.0,Calm,Calm,-,N/A,,Mostly Cloudy,0,2014-02-24 02:15:00
8:55 PM,60.8,60.8,100,30.04,0.8,Calm,Calm,-,N/A,,Mostly Cloudy,0,2014-02-24 02:55:00
9:35 PM,60.8,60.8,100,30.04,2.5,Calm,Calm,-,N/A,,Mostly Cloudy,0,2014-02-24 03:35:00
9:55 PM,59.0,59.0,100,30.05,4.0,Calm,Calm,-,N/A,,Mostly Cloudy,0,2014-02-24 03:55:00
10:55 PM,60.8,60.8,100,30.06,4.0,Calm,Calm,-,N/A,,Overcast,0,2014-02-24 04:55:00